{"data":{"norad_id":52623,"intl_designator":"2022-052AB","name":"STARLINK-3986","alt_names":[],"object_type":"PAYLOAD","status":"ACTIVE","operator":null,"country":"US","launch_date":"2022-05-14","launch_site_code":"AFETR","launch_vehicle":null,"mission":null,"orbit_class":"UNKNOWN","rcs_meters":null,"size_class":null,"mass_kg":null,"dimensions":null,"purposes":["comms"],"wikipedia_slug":null,"has_3d_model":false,"image_url":null,"decayed_at":null,"tle_current":{"epoch":"2026-09-20T02:29:09.888288Z","epoch_age_seconds":100727,"freshness":"FRESH","line1":"1 52623U 22052AB  26263.10358667 -.00000213  00000+0  47929-5 0  9996","line2":"2 52623  53.1590 104.0449 0001104  86.5712 273.5417 15.35402770240504","mean_motion":15.3540277,"eccentricity":0.0001104,"inclination_deg":53.159,"raan_deg":104.0449,"arg_perigee_deg":86.5712,"mean_anomaly_deg":273.5417,"bstar":4.7929e-6,"rev_number":24050,"period_min":93.786466205216,"perigee_km":458.96951876404,"apogee_km":460.47931856528,"semimajor_km":6837.8614186647,"source":"CELESTRAK","updated_at":"2026-09-20T09:00:40.072465Z"}}}